"Time","Value","Approval","myLocation"
"2023-04-20 00:00",23.7234975928767,"Working","OW392"
"2023-04-20 01:00",23.7295163569863,"Working","OW392"
"2023-04-20 02:00",23.7327771910959,"Working","OW392"
"2023-04-20 03:00",23.7369639952055,"Working","OW392"
"2023-04-20 04:00",23.7442047393151,"Working","OW392"
"2023-04-20 05:00",23.7493035334247,"Working","OW392"
"2023-04-20 06:00",23.7513483775342,"Working","OW392"
"2023-04-20 07:00",23.7572611516438,"Working","OW392"
"2023-04-20 08:00",23.7605339757534,"Working","OW392"
"2023-04-20 09:00",23.762468839863,"Working","OW392"
"2023-04-20 10:00",23.7665496539726,"Working","OW392"
"2023-04-20 11:00",23.7660365680822,"Working","OW392"
"2023-04-20 12:00",23.7623575621918,"Working","OW392"
"2023-04-20 13:00",23.7579705663014,"Working","OW392"
"2023-04-20 14:00",23.753675570411,"Working","OW392"
"2023-04-20 15:00",23.7463326345205,"Working","OW392"
"2023-04-20 16:00",23.7398916986301,"Working","OW392"
"2023-04-20 17:00",23.7318407727397,"Working","OW392"
"2023-04-20 18:00",23.7237598868493,"Working","OW392"
"2023-04-20 19:00",23.7109230509589,"Working","OW392"
"2023-04-20 20:00",23.7018361650685,"Working","OW392"
"2023-04-20 21:00",23.6935452891781,"Working","OW392"
"2023-04-20 22:00",23.6864263232877,"Working","OW392"
"2023-04-20 23:00",23.6796873873973,"Working","OW392"
"2023-04-21 00:00",23.6766323515068,"Working","OW392"
"2023-04-21 01:00",23.6746932956164,"Working","OW392"
"2023-04-21 02:00",23.675428159726,"Working","OW392"
"2023-04-21 03:00",23.6792209638356,"Working","OW392"
"2023-04-21 04:00",23.6896416179452,"Working","OW392"
"2023-04-21 05:00",23.6976163220548,"Working","OW392"
"2023-04-21 06:00",23.7078189861644,"Working","OW392"
"2023-04-21 07:00",23.710179820274,"Working","OW392"
"2023-04-21 08:00",23.7184525343836,"Working","OW392"
"2023-04-21 09:00",23.7248892784932,"Working","OW392"
"2023-04-21 10:00",23.7305120426027,"Working","OW392"
"2023-04-21 11:00",23.7381687667123,"Working","OW392"
"2023-04-21 12:00",23.7467474708219,"Working","OW392"
"2023-04-21 13:00",23.7522742249315,"Working","OW392"
"2023-04-21 14:00",23.7608489290411,"Working","OW392"
"2023-04-21 15:00",23.7665657031507,"Working","OW392"
"2023-04-21 16:00",23.7709584972603,"Working","OW392"
"2023-04-21 17:00",23.7738153413699,"Working","OW392"
"2023-04-21 18:00",23.7766801654795,"Working","OW392"
"2023-04-21 19:00",23.779940999589,"Working","OW392"
"2023-04-21 20:00",23.7830118236986,"Working","OW392"
"2023-04-21 21:00",23.7831127278082,"Working","OW392"
"2023-04-21 22:00",23.7840396019178,"Working","OW392"
"2023-04-21 23:00",23.7816845660274,"Working","OW392"
"2023-04-22 00:00",23.780671480137,"Working","OW392"
"2023-04-22 01:00",23.7798464142466,"Working","OW392"
"2023-04-22 02:00",23.7777953683562,"Working","OW392"
"2023-04-22 03:00",23.7740083724658,"Working","OW392"
"2023-04-22 04:00",23.7738132765753,"Working","OW392"
"2023-04-22 05:00",23.7722822106849,"Working","OW392"
"2023-04-22 06:00",23.7696211847945,"Working","OW392"
"2023-04-22 07:00",23.7648301889041,"Working","OW392"
"2023-04-22 08:00",23.7612611730137,"Working","OW392"
"2023-04-22 09:00",23.7548242271233,"Working","OW392"
"2023-04-22 10:00",23.7489172512329,"Working","OW392"
"2023-04-22 11:00",23.7442202653425,"Working","OW392"
"2023-04-22 12:00",23.7401432594521,"Working","OW392"
"2023-04-22 13:00",23.7338322835616,"Working","OW392"
"2023-04-22 14:00",23.7275073276712,"Working","OW392"
"2023-04-22 15:00",23.7236383117808,"Working","OW392"
"2023-04-22 16:00",23.7193513158904,"Working","OW392"
"2023-04-22 17:00",23.71558429,"Working","OW392"
"2023-04-22 18:00",23.7112132741096,"Working","OW392"
"2023-04-22 19:00",23.7054743382192,"Working","OW392"
"2023-04-22 20:00",23.6964314023288,"Working","OW392"
"2023-04-22 21:00",23.6885644864384,"Working","OW392"
"2023-04-22 22:00",23.6830475305479,"Working","OW392"
"2023-04-22 23:00",23.6749806146575,"Working","OW392"
"2023-04-23 00:00",23.6646857387671,"Working","OW392"
"2023-04-23 01:00",23.6524688928767,"Working","OW392"
"2023-04-23 02:00",23.6406280669863,"Working","OW392"
"2023-04-23 03:00",23.6312451810959,"Working","OW392"
"2023-04-23 04:00",23.6254342052055,"Working","OW392"
"2023-04-23 05:00",23.6137093693151,"Working","OW392"
"2023-04-23 06:00",23.6051424534247,"Working","OW392"
"2023-04-23 07:00",23.5952395875342,"Working","OW392"
"2023-04-23 08:00",23.5900386116438,"Working","OW392"
"2023-04-23 09:00",23.5835196457534,"Working","OW392"
"2023-04-23 10:00",23.577808669863,"Working","OW392"
"2023-04-23 11:00",23.5688377739726,"Working","OW392"
"2023-04-23 12:00",23.5649647580822,"Working","OW392"
"2023-04-23 13:00",23.5654916321918,"Working","OW392"
"2023-04-23 14:00",23.5660085163014,"Working","OW392"
"2023-04-23 15:00",23.567647370411,"Working","OW392"
"2023-04-23 16:00",23.5658262945205,"Working","OW392"
"2023-04-23 17:00",23.5691991186301,"Working","OW392"
"2023-04-23 18:00",23.5740919127397,"Working","OW392"
"2023-04-23 19:00",23.5746107968493,"Working","OW392"
"2023-04-23 20:00",23.5790095909589,"Working","OW392"
"2023-04-23 21:00",23.5820744150685,"Working","OW392"
"2023-04-23 22:00",23.5839172691781,"Working","OW392"
"2023-04-23 23:00",23.5844241632877,"Working","OW392"
"2023-04-24 00:00",23.5794271773973,"Working","OW392"
"2023-04-24 01:00",23.5807460615068,"Working","OW392"
"2023-04-24 02:00",23.5771890256164,"Working","OW392"
"2023-04-24 03:00",23.578515899726,"Working","OW392"
"2023-04-24 04:00",23.5848546438356,"Working","OW392"
"2023-04-24 05:00",23.5866875079452,"Working","OW392"
"2023-04-24 06:00",23.5876083920548,"Working","OW392"
"2023-04-24 07:00",23.5909832061644,"Working","OW392"
"2023-04-24 08:00",23.597309970274,"Working","OW392"
"2023-04-24 09:00",23.6057926643836,"Working","OW392"
"2023-04-24 10:00",23.6118174284932,"Working","OW392"
"2023-04-24 11:00",23.6217161026027,"Working","OW392"
"2023-04-24 12:00",23.6261088967123,"Working","OW392"
"2023-04-24 13:00",23.6336636308219,"Working","OW392"
"2023-04-24 14:00",23.6420363349315,"Working","OW392"
"2023-04-24 15:00",23.6534729690411,"Working","OW392"
"2023-04-24 16:00",23.6613217031507,"Working","OW392"
"2023-04-24 17:00",23.6690884172603,"Working","OW392"
"2023-04-24 18:00",23.6760271613699,"Working","OW392"
"2023-04-24 19:00",23.6821379354795,"Working","OW392"
"2023-04-24 20:00",23.685708759589,"Working","OW392"
"2023-04-24 21:00",23.6875436236986,"Working","OW392"
"2023-04-24 22:00",23.6918224378082,"Working","OW392"
"2023-04-24 23:00",23.6918233419178,"Working","OW392"
"2023-04-25 00:00",23.6956901660274,"Working","OW392"
"2023-04-25 01:00",23.696211050137,"Working","OW392"
"2023-04-25 02:00",23.6980419142466,"Working","OW392"
"2023-04-25 03:00",23.6990627983562,"Working","OW392"
"2023-04-25 04:00",23.7059055324658,"Working","OW392"
"2023-04-25 05:00",23.7081543865753,"Working","OW392"
"2023-04-25 06:00",23.7123332006849,"Working","OW392"
"2023-04-25 07:00",23.7147800447945,"Working","OW392"
"2023-04-25 08:00",23.7157989289041,"Working","OW392"
"2023-04-25 09:00",23.7207057130137,"Working","OW392"
"2023-04-25 10:00",23.7214225971233,"Working","OW392"
"2023-04-25 11:00",23.7236694412329,"Working","OW392"
"2023-04-25 12:00",23.7270382653425,"Working","OW392"
"2023-04-25 13:00",23.7262231894521,"Working","OW392"
"2023-04-25 14:00",23.7247941235616,"Working","OW392"
"2023-04-25 15:00",23.7323528476712,"Working","OW392"
"2023-04-25 16:00",23.7297958117808,"Working","OW392"
"2023-04-25 17:00",23.7328546458904,"Working","OW392"
"2023-04-25 18:00",23.73551349,"Working","OW392"
"2023-04-25 19:00",23.7345964041096,"Working","OW392"
"2023-04-25 20:00",23.7318333782192,"Working","OW392"
"2023-04-25 21:00",23.7311242923288,"Working","OW392"
"2023-04-25 22:00",23.7271492864384,"Working","OW392"
"2023-04-25 23:00",23.7233722705479,"Working","OW392"
"2023-04-26 00:00",23.7184692946575,"Working","OW392"
"2023-04-26 01:00",23.7158202487671,"Working","OW392"
"2023-04-26 02:00",23.7133831928767,"Working","OW392"
"2023-04-26 03:00",23.7135860969863,"Working","OW392"
"2023-04-26 04:00",23.7125730110959,"Working","OW392"
"2023-04-26 05:00",23.7138938952055,"Working","OW392"
"2023-04-26 06:00",23.7086949093151,"Working","OW392"
"2023-04-26 07:00",23.7048258934247,"Working","OW392"
"2023-04-26 08:00",23.7055387775342,"Working","OW392"
"2023-04-26 09:00",23.7011577716438,"Working","OW392"
"2023-04-26 10:00",23.6990267057534,"Working","OW392"
"2023-04-26 11:00",23.700883549863,"Working","OW392"
"2023-04-26 12:00",23.6955585939726,"Working","OW392"
"2023-04-26 13:00",23.6970974480822,"Working","OW392"
"2023-04-26 14:00",23.6937364221918,"Working","OW392"
"2023-04-26 15:00",23.6901753963014,"Working","OW392"
"2023-04-26 16:00",23.691702270411,"Working","OW392"
"2023-04-26 17:00",23.6886552245205,"Working","OW392"
"2023-04-26 18:00",23.6906960786301,"Working","OW392"
"2023-04-26 19:00",23.6947868827397,"Working","OW392"
"2023-04-26 20:00",23.6984656968493,"Working","OW392"
"2023-04-26 21:00",23.6970326309589,"Working","OW392"
"2023-04-26 22:00",23.6937656150685,"Working","OW392"
"2023-04-26 23:00",23.6921385491781,"Working","OW392"
"2023-04-27 00:00",23.6939754132877,"Working","OW392"
"2023-04-27 01:00",23.6968362473973,"Working","OW392"
"2023-04-27 02:00",23.6968351515068,"Working","OW392"
"2023-04-27 03:00",23.6953080756164,"Working","OW392"
"2023-04-27 04:00",23.696328959726,"Working","OW392"
"2023-04-27 05:00",23.6995897938356,"Working","OW392"
"2023-04-27 06:00",23.7008206579452,"Working","OW392"
"2023-04-27 07:00",23.7019515320548,"Working","OW392"
"2023-04-27 08:00",23.7031724061644,"Working","OW392"
"2023-04-27 09:00",23.706449220274,"Working","OW392"
"2023-04-27 10:00",23.7089040643836,"Working","OW392"
"2023-04-27 11:00",23.7118648984932,"Working","OW392"
"2023-04-27 12:00",23.7148317226027,"Working","OW392"
"2023-04-27 13:00",23.7209644767123,"Working","OW392"
"2023-04-27 14:00",23.7248452908219,"Working","OW392"
"2023-04-27 15:00",23.7296460749315,"Working","OW392"
"2023-04-27 16:00",23.7311809390411,"Working","OW392"
"2023-04-27 17:00",23.7326098131507,"Working","OW392"
"2023-04-27 18:00",23.7343426772603,"Working","OW392"
"2023-04-27 19:00",23.7323036213699,"Working","OW392"
"2023-04-27 20:00",23.7294465954795,"Working","OW392"
"2023-04-27 21:00",23.724647609589,"Working","OW392"
"2023-04-27 22:00",23.7196526136986,"Working","OW392"
"2023-04-27 23:00",23.7136176778082,"Working","OW392"
"2023-04-28 00:00",23.7073827319178,"Working","OW392"
"2023-04-28 01:00",23.7009337960274,"Working","OW392"
"2023-04-28 02:00",23.692356900137,"Working","OW392"
"2023-04-28 03:00",23.6892858842466,"Working","OW392"
"2023-04-28 04:00",23.6896887883562,"Working","OW392"
"2023-04-28 05:00",23.6886777024658,"Working","OW392"
"2023-04-28 06:00",23.6843946965753,"Working","OW392"
"2023-04-28 07:00",23.6843936006849,"Working","OW392"
"2023-04-28 08:00",23.6821565447945,"Working","OW392"
"2023-04-28 09:00",23.6809334789041,"Working","OW392"
"2023-04-28 10:00",23.6797183930137,"Working","OW392"
"2023-04-28 11:00",23.6775813471233,"Working","OW392"
"2023-04-28 12:00",23.6725823612329,"Working","OW392"
"2023-04-28 13:00",23.6708473053425,"Working","OW392"
"2023-04-28 14:00",23.6713701794521,"Working","OW392"
"2023-04-28 15:00",23.6708590935616,"Working","OW392"
"2023-04-28 16:00",23.6691260376712,"Working","OW392"
"2023-04-28 17:00",23.6641290417808,"Working","OW392"
"2023-04-28 18:00",23.6595360558904,"Working","OW392"
"2023-04-28 19:00",23.65259712,"Working","OW392"
"2023-04-28 20:00",23.6444401941096,"Working","OW392"
"2023-04-28 21:00",23.6358712882192,"Working","OW392"
"2023-04-28 22:00",23.6272963923288,"Working","OW392"
"2023-04-28 23:00",23.6193334764384,"Working","OW392"
"2023-04-29 00:00",23.6106505905479,"Working","OW392"
"2023-04-29 01:00",23.6009637046575,"Working","OW392"
"2023-04-29 02:00",23.5946327587671,"Working","OW392"
"2023-04-29 03:00",23.5921877128767,"Working","OW392"
"2023-04-29 04:00",23.5902546469863,"Working","OW392"
"2023-04-29 05:00",23.5897455610959,"Working","OW392"
"2023-04-29 06:00",23.5886264852055,"Working","OW392"
"2023-04-29 07:00",23.5876173993151,"Working","OW392"
"2023-04-29 08:00",23.5904722434247,"Working","OW392"
"2023-04-29 09:00",23.5899671475342,"Working","OW392"
"2023-04-29 10:00",23.5883520716438,"Working","OW392"
"2023-04-29 11:00",23.5923328857534,"Working","OW392"
"2023-04-29 12:00",23.594477729863,"Working","OW392"
"2023-04-29 13:00",23.5956106039726,"Working","OW392"
"2023-04-29 14:00",23.6009133880822,"Working","OW392"
"2023-04-29 15:00",23.6033702221918,"Working","OW392"
"2023-04-29 16:00",23.6043930963014,"Working","OW392"
"2023-04-29 17:00",23.604998000411,"Working","OW392"
"2023-04-29 18:00",23.6025589445205,"Working","OW392"
"2023-04-29 19:00",23.5988839286301,"Working","OW392"
"2023-04-29 20:00",23.5963328927397,"Working","OW392"
"2023-04-29 21:00",23.5927598768493,"Working","OW392"
"2023-04-29 22:00",23.5914308109589,"Working","OW392"
"2023-04-29 23:00",23.5825519250685,"Working","OW392"
"2023-04-30 00:00",23.5743750291781,"Working","OW392"
"2023-04-30 01:00",23.5692780332877,"Working","OW392"
"2023-04-30 02:00",23.5666249973973,"Working","OW392"
"2023-04-30 03:00",23.5661179115069,"Working","OW392"
"2023-04-30 04:00",23.5705087156164,"Working","OW392"
"2023-04-30 05:00",23.570095629726,"Working","OW392"
"2023-04-30 06:00",23.5697945338356,"Working","OW392"
"2023-04-30 07:00",23.5668335079452,"Working","OW392"
"2023-04-30 08:00",23.5672424020548,"Working","OW392"
"2023-04-30 09:00",23.5646953561644,"Working","OW392"
"2023-04-30 10:00",23.562248310274,"Working","OW392"
"2023-04-30 11:00",23.5613332343836,"Working","OW392"
"2023-04-30 12:00",23.5634760884932,"Working","OW392"
"2023-04-30 13:00",23.5672509026027,"Working","OW392"
"2023-04-30 14:00",23.5678697867123,"Working","OW392"
"2023-04-30 15:00",23.5722565908219,"Working","OW392"
"2023-04-30 16:00",23.5741914549315,"Working","OW392"
"2023-04-30 17:00",23.5752123290411,"Working","OW392"
"2023-04-30 18:00",23.5784771631507,"Working","OW392"
"2023-04-30 19:00",23.5807200172603,"Working","OW392"
"2023-04-30 20:00",23.5824608713699,"Working","OW392"
"2023-04-30 21:00",23.5825617754795,"Working","OW392"
"2023-04-30 22:00",23.583174659589,"Working","OW392"
"2023-04-30 23:00",23.5813276136986,"Working","OW392"
"2023-05-01 00:00",23.5800025478082,"Working","OW392"
"2023-05-01 01:00",23.5807114419178,"Working","OW392"
"2023-05-01 02:00",23.5792783860274,"Working","OW392"
"2023-05-01 03:00",23.581119240137,"Working","OW392"
"2023-05-01 04:00",23.5829441142466,"Working","OW392"
"2023-05-01 05:00",23.5865129383562,"Working","OW392"
"2023-05-01 06:00",23.5853938624658,"Working","OW392"
"2023-05-01 07:00",23.5879407165753,"Working","OW392"
"2023-05-01 08:00",23.5881476106849,"Working","OW392"
"2023-05-01 09:00",23.5877445147945,"Working","OW392"
"2023-05-01 10:00",23.5885494089041,"Working","OW392"
"2023-05-01 11:00",23.5894662930137,"Working","OW392"
"2023-05-01 12:00",23.5917071471233,"Working","OW392"
"2023-05-01 13:00",23.5921060512329,"Working","OW392"
"2023-05-01 14:00",23.5934429153425,"Working","OW392"
"2023-05-01 15:00",23.5962977594521,"Working","OW392"
"2023-05-01 16:00",23.5940407235616,"Working","OW392"
"2023-05-01 17:00",23.5936336376712,"Working","OW392"
"2023-05-01 18:00",23.5932145617808,"Working","OW392"
"2023-05-01 19:00",23.5910635258904,"Working","OW392"
"2023-05-01 20:00",23.58668052,"Working","OW392"
"2024-01-23 20:00",23.783,"Working","OW392"
"2024-01-23 21:00",23.7790282538945,"Working","OW392"
"2024-01-23 22:00",23.775056507789,"Working","OW392"
"2024-01-23 23:00",23.7770847616835,"Working","OW392"
"2024-01-24 00:00",23.782113015578,"Working","OW392"
"2024-01-24 01:00",23.7821412694725,"Working","OW392"
"2024-01-24 02:00",23.781169523367,"Working","OW392"
"2024-01-24 03:00",23.7791977772615,"Working","OW392"
"2024-01-24 04:00",23.778226031156,"Working","OW392"
"2024-01-24 05:00",23.7732542850504,"Working","OW392"
"2024-01-24 06:00",23.7722825389449,"Working","OW392"
"2024-01-24 07:00",23.7723107928394,"Working","OW392"
"2024-01-24 08:00",23.7653390467339,"Working","OW392"
"2024-01-24 09:00",23.7593673006284,"Working","OW392"
"2024-01-24 10:00",23.7543955545229,"Working","OW392"
"2024-01-24 11:00",23.7484238084174,"Working","OW392"
"2024-01-24 12:00",23.7364520623119,"Working","OW392"
"2024-01-24 13:00",23.7244803162064,"Working","OW392"
"2024-01-24 14:00",23.7195085701009,"Working","OW392"
"2024-01-24 15:00",23.7145368239954,"Working","OW392"
"2024-01-24 16:00",23.7105650778899,"Working","OW392"
"2024-01-24 17:00",23.7115933317844,"Working","OW392"
"2024-01-24 18:00",23.7136215856789,"Working","OW392"
"2024-01-24 19:00",23.7216498395734,"Working","OW392"
"2024-01-24 20:00",23.7176780934679,"Working","OW392"
"2024-01-24 21:00",23.7227063473624,"Working","OW392"
"2024-01-24 22:00",23.7267346012569,"Working","OW392"
"2024-01-24 23:00",23.7247628551514,"Working","OW392"
"2024-01-25 00:00",23.7297911090459,"Working","OW392"
"2024-01-25 01:00",23.7318193629403,"Working","OW392"
"2024-01-25 02:00",23.7378476168348,"Working","OW392"
"2024-01-25 03:00",23.7398758707293,"Working","OW392"
"2024-01-25 04:00",23.7509041246238,"Working","OW392"
"2024-01-25 05:00",23.7569323785183,"Working","OW392"
"2024-01-25 06:00",23.7639606324128,"Working","OW392"
"2024-01-25 07:00",23.7719888863073,"Working","OW392"
"2024-01-25 08:00",23.7780171402018,"Working","OW392"
"2024-01-25 09:00",23.7810453940963,"Working","OW392"
"2024-01-25 10:00",23.7860736479908,"Working","OW392"
"2024-01-25 11:00",23.7921019018853,"Working","OW392"
"2024-01-25 12:00",23.7971301557798,"Working","OW392"
"2024-01-25 13:00",23.8021584096743,"Working","OW392"
"2024-01-25 14:00",23.8071866635688,"Working","OW392"
"2024-01-25 15:00",23.8132149174633,"Working","OW392"
"2024-01-25 16:00",23.8202431713578,"Working","OW392"
"2024-01-25 17:00",23.8302714252523,"Working","OW392"
"2024-01-25 18:00",23.8392996791468,"Working","OW392"
"2024-01-25 19:00",23.8473279330412,"Working","OW392"
"2024-01-25 20:00",23.8503561869357,"Working","OW392"
"2024-01-25 21:00",23.8533844408302,"Working","OW392"
"2024-01-25 22:00",23.8554126947247,"Working","OW392"
"2024-01-25 23:00",23.8624409486192,"Working","OW392"
"2024-01-26 00:00",23.8694692025137,"Working","OW392"
"2024-01-26 01:00",23.8754974564082,"Working","OW392"
"2024-01-26 02:00",23.8795257103027,"Working","OW392"
"2024-01-26 03:00",23.8835539641972,"Working","OW392"
"2024-01-26 04:00",23.8865822180917,"Working","OW392"
"2024-01-26 05:00",23.8916104719862,"Working","OW392"
"2024-01-26 06:00",23.8966387258807,"Working","OW392"
"2024-01-26 07:00",23.8986669797752,"Working","OW392"
"2024-01-26 08:00",23.8996952336697,"Working","OW392"
"2024-01-26 09:00",23.8997234875642,"Working","OW392"
"2024-01-26 10:00",23.9037517414587,"Working","OW392"
"2024-01-26 11:00",23.9057799953532,"Working","OW392"
"2024-01-26 12:00",23.9048082492477,"Working","OW392"
"2024-01-26 13:00",23.9038365031422,"Working","OW392"
"2024-01-26 14:00",23.9028647570366,"Working","OW392"
"2024-01-26 15:00",23.8998930109311,"Working","OW392"
"2024-01-26 16:00",23.9009212648256,"Working","OW392"
"2024-01-26 17:00",23.9029495187201,"Working","OW392"
"2024-01-26 18:00",23.9029777726146,"Working","OW392"
"2024-01-26 19:00",23.9040060265091,"Working","OW392"
"2024-01-26 20:00",23.8960342804036,"Working","OW392"
"2024-01-26 21:00",23.8880625342981,"Working","OW392"
"2024-01-26 22:00",23.8810907881926,"Working","OW392"
"2024-01-26 23:00",23.8761190420871,"Working","OW392"
"2024-01-27 00:00",23.8731472959816,"Working","OW392"
"2024-01-27 01:00",23.8701755498761,"Working","OW392"
"2024-01-27 02:00",23.8712038037706,"Working","OW392"
"2024-01-27 03:00",23.8732320576651,"Working","OW392"
"2024-01-27 04:00",23.8772603115596,"Working","OW392"
"2024-01-27 05:00",23.8832885654541,"Working","OW392"
"2024-01-27 06:00",23.8863168193486,"Working","OW392"
"2024-01-27 07:00",23.8873450732431,"Working","OW392"
"2024-01-27 08:00",23.8883733271376,"Working","OW392"
"2024-01-27 09:00",23.890401581032,"Working","OW392"
"2024-01-27 10:00",23.8894298349265,"Working","OW392"
"2024-01-27 11:00",23.890458088821,"Working","OW392"
"2024-01-27 12:00",23.8884863427155,"Working","OW392"
"2024-01-27 13:00",23.88751459661,"Working","OW392"
"2024-01-27 14:00",23.8865428505045,"Working","OW392"
"2024-01-27 15:00",23.882571104399,"Working","OW392"
"2024-01-27 16:00",23.8815993582935,"Working","OW392"
"2024-01-27 17:00",23.877627612188,"Working","OW392"
"2024-01-27 18:00",23.8766558660825,"Working","OW392"
"2024-01-27 19:00",23.876684119977,"Working","OW392"
"2024-01-27 20:00",23.8757123738715,"Working","OW392"
"2024-01-27 21:00",23.870740627766,"Working","OW392"
"2024-01-27 22:00",23.8697688816605,"Working","OW392"
"2024-01-27 23:00",23.869797135555,"Working","OW392"
"2024-01-28 00:00",23.8758253894495,"Working","OW392"
"2024-01-28 01:00",23.874853643344,"Working","OW392"
"2024-01-28 02:00",23.8788818972385,"Working","OW392"
"2024-01-28 03:00",23.8819101511329,"Working","OW392"
"2024-01-28 04:00",23.8819384050274,"Working","OW392"
"2024-01-28 05:00",23.8779666589219,"Working","OW392"
"2024-01-28 06:00",23.8809949128164,"Working","OW392"
"2024-01-28 07:00",23.8870231667109,"Working","OW392"
"2024-01-28 08:00",23.8970514206054,"Working","OW392"
"2024-01-28 09:00",23.8960796744999,"Working","OW392"
"2024-01-28 10:00",23.9011079283944,"Working","OW392"
"2024-01-28 11:00",23.9021361822889,"Working","OW392"
"2024-01-28 12:00",23.9041644361834,"Working","OW392"
"2024-01-28 13:00",23.9021926900779,"Working","OW392"
"2024-01-28 14:00",23.9062209439724,"Working","OW392"
"2024-01-28 15:00",23.9162491978669,"Working","OW392"
"2024-01-28 16:00",23.9232774517614,"Working","OW392"
"2024-01-28 17:00",23.9283057056559,"Working","OW392"
"2024-01-28 18:00",23.9333339595504,"Working","OW392"
"2024-01-28 19:00",23.9393622134449,"Working","OW392"
"2024-01-28 20:00",23.9413904673394,"Working","OW392"
"2024-01-28 21:00",23.9354187212338,"Working","OW392"
"2024-01-28 22:00",23.9314469751283,"Working","OW392"
"2024-01-28 23:00",23.9264752290228,"Working","OW392"
"2024-01-29 00:00",23.9225034829173,"Working","OW392"
"2024-01-29 01:00",23.9205317368118,"Working","OW392"
"2024-01-29 02:00",23.9145599907063,"Working","OW392"
"2024-01-29 03:00",23.9085882446008,"Working","OW392"
"2024-01-29 04:00",23.9116164984953,"Working","OW392"
"2024-01-29 05:00",23.9086447523898,"Working","OW392"
"2024-01-29 06:00",23.9086730062843,"Working","OW392"
"2024-01-29 07:00",23.9137012601788,"Working","OW392"
"2024-01-29 08:00",23.9097295140733,"Working","OW392"
"2024-01-29 09:00",23.9067577679678,"Working","OW392"
"2024-01-29 10:00",23.9107860218623,"Working","OW392"
"2024-01-29 11:00",23.9128142757568,"Working","OW392"
"2024-01-29 12:00",23.9128425296513,"Working","OW392"
"2024-01-29 13:00",23.9058707835458,"Working","OW392"
"2024-01-29 14:00",23.9048990374403,"Working","OW392"
"2024-01-29 15:00",23.9049272913348,"Working","OW392"
"2024-01-29 16:00",23.9039555452292,"Working","OW392"
"2024-01-29 17:00",23.9039837991237,"Working","OW392"
"2024-01-29 18:00",23.8970120530182,"Working","OW392"
"2024-01-29 19:00",23.8940403069127,"Working","OW392"
"2024-01-29 20:00",23.8800685608072,"Working","OW392"
"2024-01-29 21:00",23.8710968147017,"Working","OW392"
"2024-01-29 22:00",23.8591250685962,"Working","OW392"
"2024-01-29 23:00",23.8501533224907,"Working","OW392"
"2024-01-30 00:00",23.8451815763852,"Working","OW392"
"2024-01-30 01:00",23.8362098302797,"Working","OW392"
"2024-01-30 02:00",23.8302380841742,"Working","OW392"